This is the latest recevied weather packets stored in our database for station/object IK6ZNK-3. If no packets are shown the sender has not sent any weather packets the latest 10 day(s).
| Time | Temp. | Humidity | Pressure | Rain* | Wind** | Luminosity | Snow |
|---|---|---|---|---|---|---|---|
| 1777815011 | 22.22° C | 42% | 1010.5 hPa | 0 mm | - | - | - |
| 1777814409 | 21.67° C | 40% | 1010.7 hPa | 0 mm | - | - | - |
| 1777813809 | 22.22° C | 41% | 1010.6 hPa | 0 mm | - | - | - |
| 1777813211 | 21.67° C | 39% | 1010.6 hPa | 0 mm | - | - | - |
| 1777812611 | 21.67° C | 41% | 1010.9 hPa | 0 mm | - | - | - |
| 1777812010 | 21.67° C | 41% | 1010.9 hPa | 0 mm | - | - | - |
| 1777811411 | 21.67° C | 41% | 1011 hPa | 0 mm | - | - | - |
| 1777810812 | 22.22° C | 42% | 1011.2 hPa | 0 mm | - | - | - |
| 1777810208 | 22.22° C | 40% | 1011.2 hPa | 0 mm | - | - | - |
| 1777809609 | 21.67° C | 38% | 1011.2 hPa | 0 mm | - | - | - |
| 1777809010 | 21.67° C | 42% | 1011.5 hPa | 0 mm | - | - | - |
| 1777808410 | 21.67° C | 42% | 1011 hPa | 0 mm | - | - | - |
| 1777807810 | 22.22° C | 40% | 1011.1 hPa | 0 mm | - | - | - |
| 1777807210 | 21.67° C | 42% | 1011.1 hPa | 0 mm | - | - | - |
| 1777806609 | 21.67° C | 42% | 1011.4 hPa | 0 mm | - | - | - |
| 1777806010 | 22.22° C | 40% | 1011.3 hPa | 0 mm | - | - | - |
| 1777805409 | 21.67° C | 41% | 1011.6 hPa | 0 mm | - | - | - |
| 1777804811 | 22.22° C | 42% | 1011.5 hPa | 0 mm | - | - | - |
| 1777804212 | 21.67° C | 40% | 1011.7 hPa | 0 mm | - | - | - |
| 1777803610 | 21.67° C | 39% | 1011.8 hPa | 0 mm | - | - | - |
| 1777803007 | 21.67° C | 41% | 1012 hPa | 0 mm | - | - | - |
| 1777802412 | 21.67° C | 39% | 1011.8 hPa | 0 mm | - | - | - |
| 1777801809 | 22.22° C | 37% | 1012.2 hPa | 0 mm | - | - | - |
| 1777801210 | 21.11° C | 37% | 1012.1 hPa | 0 mm | - | - | - |
| 1777800611 | 20.56° C | 39% | 1012.1 hPa | 0 mm | - | - | - |
* Rain latest hour (hover to see other rain measurements)
** Current wind speed in m/s (hover to see current wind gust speed)